Location: *
(43.0409°N, 0.1694°E)
Time: 22:39:10
(UTC+00:00)

Sich 1 - Pass Details

Date: 03 October 2023
Orbit: 587 x 616 km, 82.5° (Epoch: 04 December)

Event Time Altitude Azimuth Distance (km) Brightness Sun altitude
Rises 03:23:06 0° 359° (N) 2,865 6.8 -28.6°
Reaches altitude 10° 03:25:25 10° 7° (N) 1,962 5.9 -28.2°
Maximum altitude 03:29:31 40° 77° (ENE) 909 4.3 -27.5°
Drops below altitude 10° 03:33:37 10° 147° (SSE) 1,964 5.7 -26.8°
Sets 03:35:56 0° 155° (SSE) 2,868 6.5 -26.4°
